Back to catalog

TITAN 3C TRANSTAGE DEB

LostHEO
NORAD 26780·DEBRIS·🇺🇸 United States

Launched Dec 21, 1965 from Cape Canaveral Space Force Station

Loading…

Next Passes (next 24 hours)

TLE

StaleSource: Space-Track

Epoch: Aug 6, 2026, 08:08 UTC

1 26780U 65108AY  26218.33951222 -.00000051  00000-0  00000-0 0  9996
2 26780  26.2820 182.5385 6271802 168.0905 353.5331  2.58801075141782

Track TITAN 3C TRANSTAGE DEB in real time with AllMySat

Download on the App Store